Погода в Истомино

Россия / Калужская область     54°43′18″N   37°04′32″E
темп.,
°C
ветер,
м/с
пор.,
м/с
влажн.,
%
обл.,
%
осадки,
мм/ч
давл.,
гПа
погр.,
м
5 августа, чт
чт500:00+14ю11765 0.1 101711
03:00+14ююв117266 0.1 101716
06:00+14юв2274100 0.0 101729
09:00+20юв3457100 0.0 1017501
12:00+21ю4556100 0.1 10161015
15:00+17св1187100 1.9 101568
18:00+18в248494 0.0 1014175
21:00+15в3491100 0.1 101356
6 августа, пт
пт600:00+15ююв2486100 0.0 101261
03:00+15ююв119468 0.6 101125
06:00+16ю259682 0.7 1011140
09:00+20ю3682100 1.3 1011434
12:00+19ююз3692100 1.4 1011339
15:00+23в4562100 1.7 1010730
18:00+23в4663100 0.0 1009526
21:00+19всв512858 0.1 1008356
7 августа, сб
сб700:00+16в379641 1.4 1008151
03:00+17юв31292100 1.7 1007236
06:00+17ююв3994100 0.3 1008211
09:00+23ю5117698 0.6 1008598
12:00+25ю51059100 0.1 10091171
15:00+28ю61046100 0.1 10081979
18:00+26ю6955100 0.1 1008883
21:00+18ююз3792100 1.1 1010133
8 августа, вс
вс800:00+18з2295100 0.9 101040
03:00+17зсз3796100 1.2 1012186
06:00+15зсз3692100 0.0 1013158
09:00+18з3571100 0.0 1014386
12:00+22з3355100 0.0 10151095
15:00+24з3350100 0.0 10151594
18:00+24юз235322 0.0 1016832
21:00+19ссз237181 0.0 101768
9 августа, пн
пн900:00+16ссз11840 0.0 101811
03:00+15зсз118614 0.0 101911
06:00+15зсз118516 0.0 101911
09:00+22юв115831 0.0 1019402
12:00+26ю01425 0.0 10191468
15:00+27юв11370 0.0 10181860
18:00+26юв22461 0.0 1017307
21:00+19ююв11605 0.0 101811